EUTELSAT 9B (41310 NORAD) Tracking and Keplerian Element Data

This shows tracking and keplerian element data for the satellite.

Feedback or suggestion? Click here.




ElementValue
Catalog41310
NameEUTELSAT 9B
Epoch Orbit2074
Epoch Day261.86993486
Epoch Year2021
RAAN81.7763
Inclination0.0817
Eccentricity0.0004563
Argument of Perigee159.9949
Mean Anonmoly78.3877
Mean Motion1.00272863
Decay Rate3.8E-07
L11 41310U 16005A 21261.86993486 .00000038 00000-0 00000-0 0 9997
L22 41310 0.0817 81.7763 0004563 159.9949 78.3877 1.00272863 20745

Live tracking and technical data element details for EUTELSAT 9B (NORAD 41310). EUTELSAT 9B can be tracked NOW for your location showing map with azimuth and elevation plus other details from your city location.

Track the satellite on the map from your city or location and see movement details for azimuth, elevation, latitude, longitude, range, height, and movement on the map or in text.







IsCatalogInMostPopularTable: catalog: 41310, numindb: 538
Update: records affected: 1



GetName: 41310 EUTELSAT 9B

Hit Count: updated at: Fri, 24 Sep 2021 19:10:26 GMT